Regional Weather Roundup
Issued by NWS Sterling, VA

Home | Current Version | Previous Version | Graphics & Text | Print | Product List | Glossary On
Versions: 1 2 3 4 5 6 7 8 9 10 11 12 13 14 15 16 17 18 19 20 21 22 23 24 25 26 27
000
ASUS41 KLWX 170710
RWRLWX

REGIONAL WEATHER ROUNDUP
NATIONAL WEATHER SERVICE BALTIMORE MD/WASHINGTON DC
300 AM EDT THU APR 17 2014

Note: "FAIR" indicates few or no clouds below 12,000 feet
with no significant weather and/or obstructions to visibility.
 TC=TEMPERATURE CELSIUS

 * =Non NWS site. Station does not report precipitation (e.g. rain,
    snow, etc.), thunder, or fog.

DCZ001-MDZ009-015-VAZ040>042-051-053>054-170800-
WASHINGTON METRO

CITY           SKY/WX    TMP DP  RH WIND       PRES   REMARKS
WASHINGTON NAT CLEAR     41  27  57 NE6       30.56S
DULLES         CLEAR     30  24  78 CALM      30.54F
ANDREWS AFB    CLEAR     35  24  63 NE2       30.55R
FT BELVOIR     CLEAR     31  28  89 CALM      30.56S
QUANTICO       CLEAR     35  29  78 NW8       30.56F WCI  29
COLLEGE PARK*  CLEAR     34  30  86 CALM      30.56S
LEESBURG*      CLEAR     32  28  86 CALM      30.56S
MANASSAS*      CLEAR     28  27  93 CALM      30.55S
GAITHERSBURG*  CLEAR     34  19  55 CALM      30.57S

$$

MDZ006>007-011-014-170800-
BALTIMORE METRO

CITY           SKY/WX    TMP DP  RH WIND       PRES   REMARKS
BWI AIRPORT    CLEAR     33  26  75 CALM      30.55S
MD SCIENCE CTR   N/A     41  22  46 MISG      30.56S
MARTIN STATE   CLEAR     37  27  65 NW3       30.58S
ANNAPOLIS      CLEAR     42  32  67 CALM      30.55S

$$

MDZ012-015-019>023-170800-
MARYLAND EASTERN SHORE

CITY           SKY/WX    TMP DP  RH WIND       PRES   REMARKS
OCEAN CITY     CLEAR     43  29  57 E12       30.53S
SALISBURY      CLEAR     34  30  85 CALM      30.53S
BAY BRIDGE AP* CLEAR     36  30  80 CALM      30.56S
CAMBRIDGE*     CLEAR     34  32  93 CALM      30.54S
EASTON*        CLEAR     35  33  94 CALM      30.59R

$$

MDZ017>025-170800-
SOUTHERN MARYLAND

CITY           SKY/WX    TMP DP  RH WIND       PRES   REMARKS
PATUXENT RIVER CLEAR     40  29  64 E9        30.54S
ST INIGOES     CLEAR     36  29  75 NE3       30.54R
LEONARDTOWN*   CLEAR     32  28  86 CALM      30.55S

$$

MDZ003>005-170800-
NORTH CENTRAL MARYLAND

CITY           SKY/WX    TMP DP  RH WIND       PRES   REMARKS
FREDERICK*     CLEAR     32  30  93 CALM      30.59S
HAGERSTOWN APT PTCLDY    34  17  50 E6        30.53F
WESTMINSTER*   CLEAR     32  19  59 N3        30.54S

$$

MDZ501>502-170800-
WESTERN MARYLAND

CITY           SKY/WX    TMP DP  RH WIND       PRES   REMARKS
OAKLAND*       PTCLDY    28  10  47 SE14G20   30.38S WCI  17
CUMBERLAND*    PTCLDY    34  23  64 CALM      30.55S

$$

VAZ025>031-170800-
SHENANDOAH VALLEY

CITY           SKY/WX    TMP DP  RH WIND       PRES   REMARKS
WINCHESTER*    CLEAR     32  19  59 CALM      30.52F
STAUNTON*      CLEAR     28  23  80 CALM      30.51F

$$

WVZ021-048>050-054>055-170800-
EASTERN WEST VIRGINIA PANHANDLE

CITY           SKY/WX    TMP DP  RH WIND       PRES   REMARKS
MARTINSBURG    CLEAR     33  19  56 NW3       30.53F
PETERSBURG*    CLEAR     33  30  90 CALM      30.51S

$$

VAZ036>039-050-170800-
CENTRAL FOOTHILLS

CITY           SKY/WX    TMP DP  RH WIND       PRES   REMARKS
CHARLOTTESVILL CLEAR     32  20  61 N3        30.52F
CULPEPER*      CLEAR     32  25  74 CALM      30.55S

$$

VAZ055>057-170800-
NORTH AND CENTRAL PIEDMONT

CITY           SKY/WX    TMP DP  RH WIND       PRES   REMARKS
FREDERICKSBRG* CLEAR     34  30  86 CALM      30.54S
STAFFORD*      CLEAR     30  30 100 CALM      30.58S

$$

NCZ024-NYZ072-PAZ021-071-VAZ022-071-170800-
OTHER REGIONAL OBSERVATIONS

CITY           SKY/WX    TMP DP  RH WIND       PRES   REMARKS
NEW YORK CITY  CLEAR     38  16  40 E12       30.63S
PHILADELPHIA   PTCLDY    38  21  50 NE7       30.59S
PITTSBURGH     MOCLDY    38  16  40 SE10      30.39F
ROANOKE        CLEAR     34  22  61 CALM      30.50R
RICHMOND       CLEAR     36  27  69 NE7       30.51F
RALEIGH        CLEAR     36  28  73 NE5       30.48R

$$

ANZ530>537-170800-
MARINE OBSERVATIONS

STATION/POSITION TIME  TEMP    WIND        PRES
                       AIR SEA DIR/SP/G
                 (UTC) (F)     (DEG/KT/KT) (MB)
THOMAS PT LIGHT  0700   43 52  100/  7/  7 1035.2R
BALT KEY BRIDGE  0700   42      20/  7/  8 1034.9S
COVE POINT       0700   42     130/  7/  9 1034.0S
LEWISETTA        0700   45 51  100/ 12/ 14 1033.7R
SOLOMONS ISLAND  0700      51                N/A
PINEY POINT      0700           70/  4/  4   N/A

$$




USA.gov is the U.S. government's official web portal to all federal, state and local government web resources and services.